This is the latest recevied weather packets stored in our database for station/object SV9TNF-52. If no packets are shown the sender has not sent any weather packets the latest 10 day(s).
| Time | Temp. | Humidity | Pressure | Rain* | Wind** | Luminosity | Snow |
|---|---|---|---|---|---|---|---|
| 1787908578 | 32.78° C | 57% | 1020.3 hPa | 0 mm | 4.92 m/s, 244° | - | - |
| 1787908278 | 32.78° C | 56% | 1020.3 hPa | 0 mm | 4.47 m/s, 277° | - | - |
| 1787907978 | 33.33° C | 55% | 1020.3 hPa | 0 mm | 4.02 m/s, 270° | - | - |
| 1787907678 | 33.33° C | 55% | 1020.3 hPa | 0 mm | 4.02 m/s, 97° | - | - |
| 1787907378 | 33.33° C | 54% | 1020.7 hPa | 0 mm | 4.92 m/s, 219° | - | - |
| 1787907078 | 33.33° C | 52% | 1020.7 hPa | 0 mm | 3.58 m/s, 358° | - | - |
| 1787906778 | 33.33° C | 51% | 1020.7 hPa | 0 mm | 2.24 m/s, 311° | - | - |
| 1787906478 | 33.33° C | 54% | 1020.7 hPa | 0 mm | 3.13 m/s, 267° | - | - |
| 1787906177 | 33.33° C | 53% | 1020.7 hPa | 0 mm | 4.02 m/s, 230° | - | - |
| 1787905877 | 32.78° C | 54% | 1020.7 hPa | 0 mm | 6.26 m/s, 321° | - | - |
| 1787905577 | 32.78° C | 55% | 1020.7 hPa | 0 mm | 1.79 m/s, 197° | - | - |
| 1787905277 | 32.22° C | 57% | 1020.7 hPa | 0 mm | 4.02 m/s, 296° | - | - |
| 1787904977 | 31.67° C | 56% | 1020.7 hPa | 0 mm | 3.13 m/s, 242° | - | - |
| 1787904677 | 32.78° C | 53% | 1020.7 hPa | 0 mm | 4.02 m/s, 223° | - | - |
| 1787904377 | 32.78° C | 54% | 1020.7 hPa | 0 mm | 2.68 m/s, 222° | - | - |
| 1787904076 | 33.33° C | 54% | 1020.7 hPa | 0 mm | 2.68 m/s, 18° | - | - |
| 1787903776 | 32.22° C | 56% | 1020.7 hPa | 0 mm | 2.68 m/s, 266° | - | - |
| 1787903476 | 31.67° C | 56% | 1020.7 hPa | 0 mm | 4.47 m/s, 316° | - | - |
| 1787903177 | 31.67° C | 56% | 1020.3 hPa | 0 mm | 2.68 m/s, 346° | - | - |
| 1787902615 | 31.11° C | 55% | 1020.3 hPa | 0 mm | 3.13 m/s, 46° | - | - |
| 1787902315 | 31.67° C | 54% | 1020.3 hPa | 0 mm | 0.89 m/s, 313° | - | - |
| 1787902015 | 32.22° C | 53% | 1020.3 hPa | 0 mm | 1.79 m/s, 138° | - | - |
| 1787901715 | 31.67° C | 53% | 1020.3 hPa | 0 mm | 1.79 m/s, 341° | - | - |
| 1787901415 | 31.67° C | 54% | 1020.3 hPa | 0 mm | 1.34 m/s, 70° | - | - |
| 1787901115 | 31.67° C | 56% | 1020.3 hPa | 0 mm | 0.89 m/s, 120° | - | - |
* Rain latest hour (hover to see other rain measurements)
** Current wind speed in m/s (hover to see current wind gust speed)